Weather History for LEMD - February, 2013

Change the Weather History Date:

Friday, February 1, 2013

  Actual Average (WUND) Record (WUND)
Temperature  
Mean Temperature 44 °F -  
Max Temperature 56 °F 53 °F - (-1)
Min Temperature 32 °F 33 °F - (-1)
Degree Days  
Heating Degree Days 21    
Moisture  
Dew Point 41 °F    
Average Humidity 88    
Maximum Humidity 100    
Minimum Humidity 59    
Precipitation  
Precipitation 0.02 in 0.06 in - ()
Sea Level Pressure  
Sea Level Pressure 30.23 in    
Wind  
Wind Speed 5 mph ()    
Max Wind Speed 22 mph    
Max Gust Speed 33 mph    
Visibility 2.9 miles    
Events Fog , Rain    
Averages and records for this station are not official NWS values.
T = Trace of Precipitation, MM = Missing Value Source: Averaged Metar Reports

Daily Weather History Graph

Daily Weather History Graph

Search for Another Location

Airport or City:

Trip Planner

Search our weather history database for the weather conditions in past years. The results will help you decide how hot, cold, wet, or windy it might be!

Date:

Astronomy

Feb. 01, 2013 Rise Set
Actual Time 8:23 AM CET 6:32 PM CET
Civil Twilight 7:54 AM CET 7:01 PM CET
Nautical Twilight 7:22 AM CET 7:33 PM CET
Astronomical Twilight 6:50 AM CET 8:06 PM CET
Moon No Moon Rise 10:47 AM CET (2/1)
Length of Visible Light 11h 06m
Length of Day
10h 08m
Waning Gibbous, 73% of the Moon is Illuminated
Feb 1
Waning Gibbous
Feb 3
Last Quarter
Feb 10
New
Feb 17
First Quarter
Feb 25
Full

Hourly Weather History & Observations

Time (CET) Temp. Windchill Dew Point Humidity Pressure Visibility Wind Dir Wind Speed Gust Speed Precip Events Conditions
12:00 AM 39.2 °F - 39.2 °F 100% 30.42 in 3.1 mi NNW 2.3 mph - N/A   Mist
12:30 AM 39.2 °F - 39.2 °F 100% 30.42 in 3.1 mi North 2.3 mph - N/A   Mist
1:00 AM 38 °F - 36 °F 88% 30.48 in 2 mi North 3.5 mph - -   Mist
1:00 AM 39.2 °F 37.0 °F 39.2 °F 100% 30.42 in 3.1 mi North 3.5 mph - N/A   Mist
1:30 AM 37.4 °F - 37.4 °F 100% 30.39 in 1.9 mi Variable 2.3 mph - N/A   Mist
2:00 AM 37.4 °F 34.9 °F 37.4 °F 100% 30.39 in 1.9 mi North 3.5 mph - N/A   Mist
2:30 AM 37.4 °F 34.9 °F 37.4 °F 100% 30.39 in 2.5 mi North 3.5 mph - N/A   Mist
3:00 AM 35.6 °F - 35.6 °F 100% 30.39 in 3.1 mi Variable 1.2 mph - N/A   Mist
3:30 AM 35.6 °F - 35.6 °F 100% 30.36 in 1.9 mi North 2.3 mph - N/A Fog Patches of Fog
4:00 AM 33.8 °F 30.8 °F 33.8 °F 100% 30.36 in 1.2 mi North 3.5 mph - N/A Fog Patches of Fog
4:30 AM 33.8 °F 29.6 °F 33.8 °F 100% 30.36 in 1.2 mi NW 4.6 mph - N/A Fog Patches of Fog
5:00 AM 33.8 °F - 33.8 °F 100% 30.36 in 1.2 mi North 2.3 mph - N/A Fog Patches of Fog
5:30 AM 33.8 °F - 33.8 °F 100% 30.33 in 0.2 mi North 2.3 mph - N/A Fog Patches of Fog
6:00 AM 33.8 °F - 33.8 °F 100% 30.33 in 1.2 mi Calm Calm - N/A Fog Patches of Fog
6:30 AM 35.6 °F - 35.6 °F 100% 30.33 in 1.2 mi Calm Calm - N/A Fog Patches of Fog
6:48 AM 37.4 °F - 37.4 °F 100% 30.33 in 1.2 mi Calm Calm - N/A Fog Patches of Fog
7:00 AM 37 °F - 35 °F 92% 30.40 in 2 mi South 2.3 mph - -   Mist
7:00 AM 37.4 °F - 37.4 °F 100% 30.33 in 1.2 mi Variable 1.2 mph - N/A Fog Patches of Fog
7:30 AM 37.4 °F - 37.4 °F 100% 30.30 in 1.2 mi Calm Calm - N/A Fog Patches of Fog
8:00 AM 37.4 °F - 37.4 °F 100% 30.33 in 1.2 mi Calm Calm - N/A Fog Patches of Fog
8:15 AM 37.4 °F - 37.4 °F 100% 30.33 in 0.2 mi Calm Calm - N/A Fog Fog
8:30 AM 39.2 °F - 39.2 °F 100% 30.33 in 0.2 mi Calm Calm - N/A Fog Fog
9:00 AM 39.2 °F - 39.2 °F 100% 30.33 in 0.3 mi Variable 2.3 mph - N/A Fog Fog
9:30 AM 39.2 °F - 39.2 °F 100% 30.30 in 0.2 mi Calm Calm - N/A Fog Fog
10:00 AM 41.0 °F 39.0 °F 41.0 °F 100% 30.30 in 0.2 mi SE 3.5 mph - N/A Fog Fog
10:30 AM 41.0 °F - 41.0 °F 100% 30.30 in 0.2 mi Calm Calm - N/A Fog Fog
11:00 AM 42.8 °F - 42.8 °F 100% 30.27 in 0.5 mi Variable 2.3 mph - N/A Fog Fog
11:16 AM 42.8 °F 41.1 °F 42.8 °F 100% 30.30 in 1.1 mi SE 3.5 mph - N/A   Mostly Cloudy
11:30 AM 42.8 °F 41.1 °F 42.8 °F 100% 30.30 in 1.2 mi SE 3.5 mph - N/A   Mostly Cloudy
11:53 AM 42.8 °F 41.1 °F 42.8 °F 100% 30.27 in - SE 3.5 mph - N/A   Mostly Cloudy
12:00 PM 44.6 °F 42.2 °F 44.6 °F 100% 30.27 in - SSE 4.6 mph - N/A   Mostly Cloudy
12:30 PM 44.6 °F 40.2 °F 44.6 °F 100% 30.27 in 2.5 mi SSE 8.1 mph - N/A   Mostly Cloudy
1:00 PM 47 °F - 42 °F 76% 30.28 in 4 mi SE 8.1 mph - -   Mist
1:00 PM 46.4 °F 42.9 °F 44.6 °F 93% 30.24 in 4.3 mi SE 6.9 mph - N/A   Scattered Clouds
1:30 PM 48.2 °F - 44.6 °F 87% 30.24 in 5.0 mi South 5.8 mph - N/A   Partly Cloudy
2:00 PM 50.0 °F - 46.4 °F 87% 30.21 in 5.0 mi SE 8.1 mph - N/A   Partly Cloudy
2:30 PM 51.8 °F - 46.4 °F 82% 30.18 in 5.6 mi SE 9.2 mph - N/A   Partly Cloudy
3:00 PM 55.4 °F - 44.6 °F 67% 30.15 in - South 5.8 mph - N/A   Clear
3:30 PM 55.4 °F - 44.6 °F 67% 30.15 in - SW 6.9 mph 18.4 mph N/A   Clear
4:00 PM 57.2 °F - 42.8 °F 59% 30.12 in - SSW 11.5 mph 23.0 mph N/A   Clear
4:30 PM 57.2 °F - 44.6 °F 63% 30.09 in - SW 16.1 mph 28.8 mph N/A   Clear
5:00 PM 57.2 °F - 42.8 °F 59% 30.09 in - SW 11.5 mph - N/A   Clear
5:30 PM 55.4 °F - 42.8 °F 63% 30.06 in - SW 13.8 mph - N/A   Clear
6:00 PM 53.6 °F - 42.8 °F 67% 30.06 in - SSW 10.4 mph 21.9 mph N/A   Clear
6:30 PM 51.8 °F - 42.8 °F 71% 30.04 in - SSW 8.1 mph - N/A   Clear
7:00 PM 50 °F - 42 °F 64% 30.04 in 19 mi SSW 6.9 mph - -   Clear
7:00 PM 51.8 °F - 42.8 °F 71% 30.04 in - SW 8.1 mph - N/A   Clear
7:30 PM 51.8 °F - 42.8 °F 71% 30.04 in - WSW 4.6 mph - N/A   Clear
8:00 PM 51.8 °F - 42.8 °F 71% 30.01 in - WSW 20.7 mph - N/A   Clear
8:30 PM 51.8 °F - 42.8 °F 71% 30.01 in - SW 19.6 mph - N/A   Clear
9:00 PM 51.8 °F - 42.8 °F 71% 29.98 in 6.2 mi SW 18.4 mph - N/A   Partly Cloudy
9:30 PM 51.8 °F - 44.6 °F 76% 29.98 in 6.2 mi SW 21.9 mph - N/A   Scattered Clouds
10:00 PM 53.6 °F - 44.6 °F 72% 29.98 in 6.2 mi WSW 18.4 mph 29.9 mph N/A   Mostly Cloudy
10:30 PM 51.8 °F - 44.6 °F 76% 29.95 in 6.2 mi SW 21.9 mph - N/A   Mostly Cloudy
11:00 PM 51.8 °F - 44.6 °F 76% 29.95 in 6.2 mi WSW 21.9 mph 33.4 mph N/A Rain Light Rain
11:30 PM 50.0 °F - 46.4 °F 87% 29.95 in 6.2 mi WSW 19.6 mph - N/A Rain Light Rain